SCP
0 0 0 0 0 0 0 0 0 0 0 0 0 0 0 0 0 0 0 0 0 0 0 0 0 0 0 0 0 0 0 0 0 0 0 0 0 0
0 0 0 0 0 0 0 0 0 0 0 0 0 0 0 0 0 0 0 0 0 0 0 0 0 0 0 0 0 0 0 0 0 0 0 0 0 0
0 0 0 0 0 0 0 0 0 0 0 0 0 0 0 0 0 0 0 0 0 0 0 0 0 0 0 0 0 0 0 0 0 0 0 0 0 0
0 0 0 0 0 0 0 0 0 0 0 0 0 0 0 0 0 0 0 0 0 0 0 0 0 0 0 0 0 0 0 0 0 0 0 0 0 0
0 0 0 0 0 0 0 0 0 0 0 0 0 0 0 0 0 0 0 0 0 0 0 0 0 0 0 0 0 0 0 0 0 0 0 0 0 0
0 0 0 0 0 0 0 0 0 0 0 0 0 0 0 0 0 0 0 0 0 0 0 0 0 0 0 0 0 0 0 0 0 0 0 0 0 0
0 0 0 0 0 0 0 0 0 0 0 0 0 0 0 0 0 0 0 0 0 0 0 0 0 0 0 0 0 0 0 0 0 0 0 0 0 0
0 0 0 0 0 0 0 0 0 0 0 0 0 0 0 0 0 0 0 0 0 0 0 0 0 0 0 0 0 0 0 0 0 0 0 0 0 0
0 0 0 0 0 0 0 0 0 0 0 0 0 0 0 0 0 0 0 0 0 0 0 0 0 0 0 0 0 0 0 0 0 0 0 0 0 0
0 0 0 0 0 0 0 0 0 0 0 0 0 0 0 0 0 0 0 0 0 0 0 0 0 0 0 0 0 0 0 0 0 0 0 0 0 0
0 0 0 0 0 0 0 0 0 0 0 0 0 0 0 0 0 0 0 0 0 0 0 0 0 0 0 0 0 0 0 0 0 0 0 0 0 0
0 0 0 0 0 0 0 0 0 0 0 0 0 0 0 0 0 0 0 0 0 0 0 0 0 0 0 0 0 0 0 0 0 0 0 0 0 0
0 0 0 0 0 0 0 0 0 0 0 0 0 0 0 0 0 0 0 0 0 0 0 0 0 0 0 0 0 0 0 0 0 0 0 0 0 0
0 0 0 0 0 0 0 0 0 0 0 0 0 0 0 0 0 0 0 0 0 0 0 0 0 0 0 0 0 0 0 0 0 0 0 0 0 0
0 0 0 0 0 0 0 0 0 0 0 0 0 0 0 0 0 0 0 0 0 0 0 0 0 0 0 0 0 0 0 0 0 0 0 0 0 0
0 0 0 0 0 0 0 0 0 0 0 0 0 0 0 0 0 0 0 0 0 0 0 0 0 0 0 0 0 0 0 0 0 0 0 0 0 0
0 0 0 0 0 0 0 0 0 0 0 0 0 0 0 0 0 0 0 0 0 0 0 0 0 0 0 0 0 0 0 0 0 0 0 0 0 0
0 0 0 0 0 0 0 0 0 0 0 0 0 0 0 0 0 0 0 0 0 0 0 0 0 0 0 0 0 0 0 0 0 0 0 0 0 0
0 0 0 0 0 0 0 0 0 0 0 0 0 0 0 0 0 0 0 0 0 0 0 0 0 0 0 0 0 0 0 0 0 0 0 0 0 0
0 0 0 0 0 0 0 0 0 0 0 0 0 0 0 0 0 0 0 0 0 0 0 0 0 0 0 0 0 0 0 0 0 0 0 0 0 0
0 0 0 0 0 0 0 0 0 0 0 0 0 0 0 0 0 0 0 0 0 0 0 0 0 0 0 0 0 0 0 0 0 0 0 0 0 0
0 0 0 0 0 0 0 0 0 0 0 0 0 0 0 0 0 0 0 0 0 0 0 0 0 0 0 0 0 0 0 0 0 0 0 0 0 0
0 0 0 0 0 0 0 0 0 0 0 0 0 0 0 0 0 0 0 0 0 0 0 0 0 0 0 0 0 0 0 0 0 0 0 0 0 0
Wind_Speed
3 2 1 1 1 1 2 3 3 4 3 3 3 3 2 3 3 2 4 8 6 6 5 5 5 5 4 4 3 3 3 3 3 3 3 3 4 4
3 3 3 2 2 2 2 1 1 2 4 4 3 4 3 3 4 2 3 8 7 6 5 5 5 5 4 4 3 3 2 2 2 1 2 2 2 3
4 4 4 4 3 2 2 2 1 2 4 4 4 5 4 3 3 2 3 4 6 7 6 5 5 5 5 4 4 4 3 2 2 1 1 1 1 1
5 5 5 4 4 3 2 3 3 3 4 6 5 5 5 4 3 2 2 3 4 9 7 6 6 6 6 5 5 4 4 3 3 2 2 2 2 2
5 5 5 5 5 4 4 4 3 4 4 5 5 3 3 3 3 3 3 2 3 8 8 8 8 7 6 6 6 5 5 5 4 4 4 4 4 3
6 6 6 6 5 4 4 4 4 4 5 4 4 4 3 4 3 3 3 3 2 3 4 5 8 9 9 8 8 7 6 6 6 5 5 5 5 5
7 7 8 8 8 5 4 4 4 3 4 4 4 4 4 3 2 1 2 2 3 2 2 4 6 6 8 10 10 9 7 7 7 7 7 7 6 6
7 6 7 7 8 8 8 8 5 3 3 2 3 4 3 2 1 0 1 1 2 2 2 2 2 2 3 4 8 8 7 7 7 7 7 7 7 7
6 5 6 7 5 7 7 7 7 7 4 2 4 3 3 2 0 1 1 1 1 1 2 1 1 2 2 4 11 8 7 7 7 7 7 7 7 7
7 6 6 7 7 5 5 6 6 6 4 3 4 3 3 2 0 1 1 2 2 2 1 2 1 1 1 2 10 9 8 7 7 7 7 7 7 7
7 8 7 7 8 6 3 5 6 5 6 6 5 3 3 2 3 2 2 2 1 1 1 2 2 2 2 2 6 11 9 9 8 7 7 7 7 8
5 7 10 9 8 7 3 4 5 4 4 5 4 4 4 4 3 3 3 2 1 0 2 2 2 2 2 1 1 5 7 9 11 10 9 8 7 7
5 5 7 7 7 7 5 4 4 2 1 2 3 3 2 3 3 2 1 3 3 2 1 2 3 2 2 2 2 2 2 3 5 7 10 11 10 8
5 5 6 5 5 4 4 4 3 5 1 1 1 1 1 1 1 1 1 2 3 3 3 4 4 3 4 4 3 2 2 3 3 3 3 9 11 12
5 6 4 2 1 2 2 2 4 2 1 1 1 2 2 2 1 1 2 2 4 4 3 3 4 4 5 5 4 3 3 3 3 3 3 4 4 5
2 3 3 2 2 1 2 2 0 3 3 2 2 2 1 0 1 1 1 2 2 2 3 4 4 5 5 6 5 4 4 3 3 3 3 4 5 5
4 1 1 2 2 2 2 2 1 1 0 2 2 2 2 2 1 1 2 3 3 2 2 2 4 5 6 6 5 4 4 3 3 2 4 6 5 5
6 1 2 2 2 2 2 1 1 2 2 2 2 2 2 2 2 2 3 3 3 3 3 3 3 4 5 4 4 5 4 4 3 3 5 6 5 4
4 1 2 2 2 2 2 2 2 2 3 3 3 3 3 3 3 3 3 3 4 4 4 4 4 4 5 4 2 4 4 5 5 5 5 5 6 4
1 1 2 2 2 2 2 2 2 2 2 2 3 3 3 4 4 4 3 4 4 5 5 5 4 5 6 6 6 5 7 6 5 6 6 6 6 4
1 1 2 2 2 2 2 2 3 3 3 4 3 4 4 4 4 4 4 3 5 6 5 5 3 3 6 6 7 6 4 6 6 6 7 8 7 6
2 2 2 2 2 3 3 3 3 3 3 4 3 4 4 4 5 5 5 5 5 5 6 5 5 5 6 7 7 7 7 5 7 12 12 10 8 8
2 3 3 3 3 3 3 3 4 4 4 4 4 4 4 4 5 5 5 5 6 6 7 6 6 6 7 7 8 8 9 9 7 7 7 11 16 16
Wind_Direction
48 64 56 62 84 110 143 163 162 162 159 155 155 135 124 110 129 166 140 128 135 141 139 137 136 134 134 131 123 115 107 99 80 75 78 71 58 44
48 49 44 63 73 93 131 155 193 167 144 147 144 142 144 147 144 164 136 143 157 157 157 159 159 164 167 168 164 156 146 128 111 96 93 74 55 38
55 58 55 60 72 86 93 105 111 124 131 125 130 133 145 150 150 183 174 188 153 164 168 170 175 180 175 172 170 170 172 171 168 168 138 82 18 7
60 66 65 68 70 71 76 84 87 96 128 129 132 139 148 155 159 194 185 186 162 148 161 173 181 182 180 174 176 182 190 198 202 208 220 236 254 277
58 62 67 73 66 63 66 77 89 100 110 128 129 127 139 146 170 179 177 195 185 150 164 174 180 182 184 186 189 196 205 213 219 223 232 241 246 254
58 60 59 63 64 66 72 79 88 101 113 125 130 140 145 162 190 183 172 178 184 175 167 171 175 187 193 197 200 203 208 216 224 231 236 240 242 244
61 62 65 68 59 49 62 82 98 112 124 130 140 147 144 162 167 191 173 176 163 186 204 186 180 193 188 198 203 202 210 219 226 233 237 238 238 240
60 63 80 80 82 78 68 60 52 78 98 123 130 118 122 127 103 232 188 203 164 158 248 208 195 197 195 185 157 179 204 219 228 233 237 238 240 240
52 52 61 70 72 84 96 101 76 61 54 38 89 94 119 105 107 191 126 319 20 83 266 247 194 217 220 141 155 183 205 222 232 235 238 240 239 239
53 55 59 58 49 38 75 88 91 83 72 74 81 80 78 70 354 278 224 226 215 199 257 277 238 249 258 158 162 187 203 217 228 233 236 238 239 240
57 49 50 61 35 4 64 93 97 101 98 79 62 58 45 3 319 280 256 257 228 156 183 285 297 295 275 222 164 184 200 208 216 222 227 230 236 241
75 76 62 44 22 1 42 80 91 92 104 129 145 174 183 172 214 273 303 304 299 96 104 286 293 287 280 253 213 184 201 203 209 213 215 221 228 250
66 69 65 39 25 9 359 46 46 357 97 140 150 155 160 163 183 195 304 315 328 345 33 298 300 302 302 291 266 234 235 211 206 206 210 212 217 242
50 57 66 37 22 10 26 40 331 290 246 105 100 100 92 98 90 54 355 318 311 308 315 310 303 310 306 301 291 267 265 255 247 248 233 190 212 225
47 48 28 350 290 141 117 291 275 269 45 50 56 60 54 53 0 214 213 232 247 244 238 253 275 293 296 295 299 299 291 277 261 260 261 250 242 226
91 135 201 265 276 58 183 214 330 27 4 14 20 25 30 159 257 321 320 299 283 257 210 226 248 275 284 293 291 286 281 276 270 267 278 272 257 246
334 254 173 148 154 111 91 75 78 121 27 26 5 345 343 346 343 337 316 299 299 299 293 246 230 237 254 271 287 294 295 289 283 287 278 279 272 261
309 14 52 45 40 54 45 49 50 33 11 1 351 344 342 339 336 326 313 311 315 315 315 314 305 290 272 244 240 271 288 299 297 280 274 279 284 282
278 33 38 28 18 16 15 9 14 27 357 339 342 340 332 323 317 315 319 318 314 313 312 308 301 298 302 309 265 240 288 303 299 293 288 289 288 287
283 16 16 14 4 353 354 354 348 347 329 329 333 329 325 317 312 308 306 314 315 312 305 300 302 315 320 320 314 290 239 267 289 294 297 294 286 264
358 353 345 341 342 337 331 329 323 320 322 316 314 314 311 307 308 308 304 305 288 291 299 304 325 275 283 280 280 283 276 222 247 276 291 290 288 282
321 319 324 324 315 305 297 290 287 292 292 283 292 296 299 301 303 301 302 300 296 297 301 299 291 273 273 278 285 289 288 277 238 231 245 262 284 297
308 307 293 278 275 277 289 298 298 300 301 301 301 297 296 296 297 295 294 294 295 297 297 297 297 292 290 290 288 288 288 286 282 271 251 226 229 243